Tracking 35035 objects as of 16-Aug-2026
HD Live streaming from Space Station
objects crossing your sky now

STARLINK-3559

Track STARLINK-3559 now!
10-day predictions
STARLINK-3559 is classified as:


NORAD ID: 51860
Int'l Code: 2022-022J
Launch date: March 3, 2022
Source: United States (US)
Launch site: AIR FORCE EASTERN TEST RANGE (AFETR)
Your satellite tracking list
Your tracking list is empty




NASA's NSSDC Master Catalog

Two Line Element Set (TLE):
1 51860U 22022J   26227.79425336 -.00000350  00000-0  87154-6 0  9996
2 51860  53.1636  10.4672 0001266  92.5321 267.5827 15.35401007247199
Source of the keplerian elements: AFSPC